Home > Weather > Kathmandu > Past weeks

Flag for Nepal Weather for the Past 2 Weeks in Kathmandu, Nepal

Now
81 °F

Scattered clouds.


Feels Like: 81 °F
Forecast: 56 / 76 °F
Wind: 6 mph from West

Location: Kathmandu Airport

Current Time: May 3, 2016 at 1:14:58 PM

Latest Report: May 3, 2016 at 12:05 PM


Visibility: 3 mi

Pressure: 30.01 "Hg (25.87 "Hg at 1305m altitude)

Humidity: 51%

Dew Point: 61 °F

Location of KathmanduLocation

Historic Weather in Kathmandu — Graph

°F

Kathmandu Temperature Yesterday

Maximum temperature yesterday: 84 °F (at 1:35 PM)
Minimum temperature yesterday: 63 °F (at 4:35 AM)
Average temperature yesterday: 73 °F

High & Low Weather Summary for the Past Weeks

 TemperatureHumidityPressure
High90 °F (Apr 20, 12:35 PM)94% (Apr 19, 4:35 AM)30.07 "Hg (Apr 19, 4:35 AM)
Low55 °F (Apr 19, 5:35 AM)7% (Apr 30, 12:35 PM)29.68 "Hg (Apr 23, 4:05 PM)
Average74 °F44%29.91 "Hg
* Reported Apr 18 12:05 PM — May 3 12:05 PM, Kathmandu, Weather by CustomWeather, © 2016

Note: Actual official high and low records may vary slightly from our data, if they occured in-between our weather recording intervals... More about our weather records

Advertising

Kathmandu Weather History for the Previous 24 Hours

Scroll right to see more
 ConditionsComfort  
Time TempWeatherWind HumidityBarometerVisibility
12:05 PM
Tue, May 3
81 °FScattered clouds.6 mph51%30.01 "Hg3 mi
11:05 AM77 °FScattered clouds.2 mph57%30.04 "Hg3 mi
10:35 AM75 °FScattered clouds.3 mph61%30.04 "Hg3 mi
10:05 AM75 °FScattered clouds.5 mph61%30.04 "Hg2 mi
9:05 AM72 °FFog.6 mph69%30.04 "Hg2 mi
8:35 AM70 °FFog.5 mph73%30.04 "Hg2 mi
8:05 AM68 °FFog.5 mph78%30.04 "Hg1 mi
7:05 AM66 °FFog.3 mph83%30.01 "Hg1 mi
6:35 AM64 °FFog.2 mph88%29.98 "Hg1 mi
6:05 AM63 °FFog.2 mph88%29.98 "Hg1 mi
5:35 AM63 °FFog.5 mph88%29.98 "Hg1 mi
4:35 AM64 °FFog.3 mph83%29.95 "Hg2 mi
3:35 AM64 °FFog.2 mph83%29.95 "Hg2 mi
2:35 AM66 °FFog.2 mph83%29.98 "Hg2 mi
1:35 AM66 °FFog.2 mph83%29.98 "Hg2 mi
12:35 AM68 °FFog.2 mph78%29.98 "Hg2 mi
12:05 AM70 °FFog.2 mph73%30.01 "Hg2 mi
11:35 PM
Mon, May 2
70 °FFog.2 mph73%30.01 "Hg2 mi
11:05 PM70 °FFog.2 mph73%30.01 "Hg2 mi
10:35 PM72 °FFog.2 mph73%30.01 "Hg2 mi
10:05 PM72 °FFog.5 mph73%30.01 "Hg2 mi
9:35 PM72 °FPassing clouds.7 mph73%30.01 "Hg3 mi
9:05 PM73 °FPassing clouds.5 mph69%29.98 "Hg3 mi
8:35 PM73 °FPassing clouds.7 mph69%29.98 "Hg3 mi
8:05 PM75 °FPassing clouds.8 mph65%29.98 "Hg3 mi
7:35 PM75 °FPassing clouds.6 mph61%29.95 "Hg3 mi
7:05 PM75 °FScattered clouds.8 mph65%29.95 "Hg3 mi
6:35 PM77 °FScattered clouds.10 mph61%29.95 "Hg3 mi
6:05 PM77 °FPartly sunny.10 mph57%29.92 "Hg3 mi
5:35 PM79 °FPartly sunny.13 mph54%29.92 "Hg4 mi
5:05 PM79 °FPartly sunny.12 mph58%29.92 "Hg4 mi
4:35 PM79 °FPartly sunny.13 mph54%29.92 "Hg4 mi
4:05 PM79 °FPartly sunny.12 mph54%29.92 "Hg4 mi
3:35 PM79 °FScattered clouds.13 mph54%29.92 "Hg4 mi
3:05 PM81 °FScattered clouds.13 mph51%29.92 "Hg4 mi
2:35 PM82 °FHaze.12 mph48%29.92 "Hg3 mi
2:05 PM82 °FScattered clouds.12 mph48%29.95 "Hg3 mi
1:35 PM84 °FPartly sunny.9 mph43%29.95 "Hg3 mi
1:05 PM82 °FPartly sunny.5 mph42%29.95 "Hg3 mi
Weather by CustomWeather, © 2016

See weather overviewHow to use our weather pages